Date String (YYYY-MM-DD hh:mm:ss) UTC,Instrument flags,Ambient pressure (hPa),Sample flow (lpm),Bypass flow (lpm),Sample temperature (°C),Ambient temperature (°C),ASC tube jacket temperature (°C),LED temperature (°C),Box temperature (°C),Sample RH (%),Span deviation,Mass concentration (μg/m³),Mass concentration (μg/m³),Mass concentration (μg/m³)
DateTimeUTC,F1_M11,P_M11,Q1_M11,Q2_M11,T1_M11,T2_M11,T3_M11,T4_M11,T5_M11,U1_M11,ZSPAN_M11,X2_M11,X0_M11,X1_M11
2022-10-17 08:00:00,,0833.7,5.01,0.00,26.7,25.0,00.0,35.7,28.4,13.1,0000.0,0004.91,0008.64,0004.57
2022-10-17 08:01:00,,0833.7,4.99,0.00,26.7,25.0,00.0,35.7,28.4,13.2,0000.0,0004.88,0009.14,0004.54
2022-10-17 08:02:00,,0833.7,5.01,0.00,26.7,25.0,00.0,35.7,28.5,13.2,0000.0,0004.85,0009.31,0004.52
2022-10-17 08:03:00,,0833.7,4.99,0.00,26.7,25.0,00.0,35.7,28.4,13.2,0000.0,0004.84,0009.24,0004.51
2022-10-17 08:04:00,,0833.7,5.01,0.00,26.7,25.0,00.0,35.6,28.5,13.1,0000.0,0004.79,0008.95,0004.49
2022-10-17 08:05:00,,0833.7,4.99,0.00,26.7,25.0,00.0,35.6,28.5,13.1,0000.0,0004.75,0009.25,0004.47
2022-10-17 08:06:00,,0833.7,5.01,0.00,26.7,25.0,00.0,35.6,28.4,13.0,0000.0,0004.73,0009.92,0004.45
2022-10-17 08:07:00,,0833.7,4.99,0.00,26.6,24.9,00.0,35.6,28.4,13.1,0000.0,0004.72,0009.80,0004.43
2022-10-17 08:08:00,,0833.6,5.01,0.00,26.6,24.9,00.0,35.6,28.4,13.1,0000.0,0004.73,0009.95,0004.42
2022-10-17 08:09:00,,0833.6,4.99,0.00,26.6,24.9,00.0,35.6,28.4,13.1,0000.0,0004.75,0010.04,0004.41
2022-10-17 08:10:00,,0833.7,4.98,0.00,26.6,24.9,00.0,35.6,28.3,13.2,0000.0,0004.75,0010.04,0004.42
2022-10-17 08:11:00,,0833.6,5.02,0.00,26.6,24.9,00.0,35.6,28.3,13.2,0000.0,0004.79,0009.87,0004.42
2022-10-17 08:12:00,,0833.6,4.98,0.00,26.6,24.9,00.0,35.6,28.4,13.2,0000.0,0004.81,0009.38,0004.43
2022-10-17 08:13:00,,0833.6,5.01,0.00,26.6,24.9,00.0,35.6,28.3,13.1,0000.0,0004.83,0009.47,0004.42
2022-10-17 08:14:00,,0833.6,4.99,0.00,26.6,24.8,00.0,35.5,28.3,13.1,0000.0,0004.83,0009.47,0004.41
2022-10-17 08:15:00,,0833.6,5.02,0.00,26.6,24.8,00.0,35.5,28.3,13.1,0000.0,0004.83,0009.67,0004.42
2022-10-17 08:16:00,,0833.6,4.99,0.00,26.6,24.8,00.0,35.5,28.3,13.1,0000.0,0004.85,0009.75,0004.42
2022-10-17 08:17:00,,0833.6,5.01,0.00,26.6,24.8,00.0,35.5,28.3,13.1,0000.0,0004.86,0009.01,0004.43
2022-10-17 08:18:00,,0833.6,4.99,0.00,26.5,24.8,00.0,35.5,28.3,12.9,0000.0,0004.86,0008.85,0004.43
2022-10-17 08:19:00,,0833.6,5.01,0.00,26.5,24.8,00.0,35.5,28.3,12.9,0000.0,0004.84,0008.53,0004.41
2022-10-17 08:20:00,,0833.6,4.99,0.00,26.5,24.8,00.0,35.5,28.3,13.1,0000.0,0004.83,0008.59,0004.39
2022-10-17 08:21:00,,0833.6,5.00,0.00,26.5,24.8,00.0,35.5,28.3,13.0,0000.0,0004.79,0008.58,0004.36
2022-10-17 08:22:00,,0833.6,5.02,0.00,26.5,24.8,00.0,35.5,28.2,12.9,0000.0,0004.75,0008.55,0004.33
2022-10-17 08:23:00,,0833.6,4.99,0.00,26.5,24.8,00.0,35.4,28.2,12.9,0000.0,0004.71,0008.51,0004.30
2022-10-17 08:24:00,,0833.6,5.02,0.00,26.5,24.8,00.0,35.4,28.2,12.9,0000.0,0004.66,0008.28,0004.28
2022-10-17 08:25:00,,0833.6,4.99,0.00,26.5,24.7,00.0,35.4,28.2,12.9,0000.0,0004.64,0008.25,0004.26
2022-10-17 08:26:00,,0833.6,5.00,0.00,26.5,24.7,00.0,35.4,28.2,12.9,0000.0,0004.62,0008.24,0004.23
2022-10-17 08:27:00,,0833.5,5.00,0.00,26.4,24.7,00.0,35.4,28.2,12.9,0000.0,0004.60,0007.59,0004.20
2022-10-17 08:28:00,,0833.6,4.99,0.00,26.4,24.7,00.0,35.4,28.2,12.9,0000.0,0004.56,0007.50,0004.19
2022-10-17 08:29:00,,0833.6,5.01,0.00,26.4,24.7,00.0,35.4,28.1,12.8,0000.0,0004.55,0007.54,0004.18
2022-10-17 08:30:00,,0833.6,4.98,0.00,26.4,24.7,00.0,35.4,28.2,12.7,0000.0,0004.52,0007.45,0004.15
2022-10-17 08:31:00,,0833.6,5.01,0.00,26.4,24.7,00.0,35.4,28.2,12.6,0000.0,0004.48,0007.21,0004.14
2022-10-17 08:32:00,,0833.6,4.98,0.00,26.4,24.6,00.0,35.3,28.1,12.7,0000.0,0004.46,0007.14,0004.14
2022-10-17 08:33:00,,0833.5,5.02,0.00,26.4,24.6,00.0,35.3,28.1,12.7,0000.0,0004.44,0007.57,0004.14
2022-10-17 08:34:00,,0833.6,4.99,0.00,26.4,24.6,00.0,35.3,28.1,12.7,0000.0,0004.46,0007.94,0004.15
2022-10-17 08:35:00,,0833.5,4.99,0.00,26.4,24.6,00.0,35.3,28.1,12.7,0000.0,0004.47,0007.89,0004.15
2022-10-17 08:36:00,,0833.5,5.01,0.00,26.3,24.6,00.0,35.3,28.0,12.7,0000.0,0004.49,0007.94,0004.16
2022-10-17 08:37:00,,0833.5,4.99,0.00,26.3,24.6,00.0,35.3,28.1,12.7,0000.0,0004.50,0007.98,0004.17
2022-10-17 08:38:00,,0833.6,5.01,0.00,26.3,24.6,00.0,35.3,28.0,12.7,0000.0,0004.51,0008.06,0004.18
2022-10-17 08:39:00,,0833.6,4.99,0.00,26.3,24.6,00.0,35.3,28.0,12.7,0000.0,0004.51,0008.07,0004.18
2022-10-17 08:40:00,,0833.6,5.02,0.00,26.3,24.6,00.0,35.3,28.0,12.6,0000.0,0004.52,0008.04,0004.19
2022-10-17 08:41:00,,0833.5,4.99,0.00,26.3,24.6,00.0,35.2,28.0,12.6,0000.0,0004.56,0008.29,0004.20
2022-10-17 08:42:00,,0833.5,5.00,0.00,26.3,24.6,00.0,35.2,27.9,12.6,0000.0,0004.59,0008.42,0004.22
2022-10-17 08:43:00,,0833.5,5.00,0.00,26.3,24.5,00.0,35.2,28.0,12.6,0000.0,0004.60,0008.40,0004.23
2022-10-17 08:44:00,,0833.5,5.01,0.00,26.2,24.5,00.0,35.2,28.0,12.6,0000.0,0004.63,0008.14,0004.23
2022-10-17 08:45:00,,0833.4,4.99,0.00,26.2,24.5,00.0,35.2,28.0,12.6,0000.0,0004.65,0007.73,0004.23
2022-10-17 08:46:00,,0833.4,5.01,0.00,26.2,24.5,00.0,35.2,28.0,12.6,0000.0,0004.66,0007.91,0004.24
2022-10-17 08:47:00,,0833.5,4.99,0.00,26.2,24.5,00.0,35.2,28.0,12.7,0000.0,0004.69,0008.17,0004.25
2022-10-17 08:48:00,,0833.4,5.01,0.00,26.2,24.5,00.0,35.2,27.9,12.8,0000.0,0004.74,0008.21,0004.26
2022-10-17 08:49:00,,0833.4,4.99,0.00,26.2,24.5,00.0,35.1,27.9,12.8,0000.0,0004.75,0008.16,0004.27
2022-10-17 08:50:00,,0833.5,5.01,0.00,26.2,24.5,00.0,35.1,27.9,12.8,0000.0,0004.74,0008.14,0004.27
2022-10-17 08:51:00,,0833.4,4.99,0.00,26.2,24.4,00.0,35.1,27.9,12.7,0000.0,0004.74,0008.20,0004.26
2022-10-17 08:52:00,,0833.4,5.01,0.00,26.2,24.4,00.0,35.1,27.9,12.6,0000.0,0004.74,0008.39,0004.26
2022-10-17 08:53:00,,0833.4,4.99,0.00,26.1,24.4,00.0,35.1,27.9,12.6,0000.0,0004.73,0008.55,0004.26
2022-10-17 08:54:00,,0833.4,4.99,0.00,26.1,24.4,00.0,35.1,27.9,12.6,0000.0,0004.72,0008.56,0004.27
2022-10-17 08:55:00,,0833.4,5.02,0.00,26.1,24.4,00.0,35.1,27.9,12.6,0000.0,0004.69,0008.48,0004.27
2022-10-17 08:56:00,,0833.4,4.99,0.00,26.1,24.4,00.0,35.1,27.9,12.6,0000.0,0004.68,0008.42,0004.27
2022-10-17 08:57:00,,0833.4,5.00,0.00,26.1,24.4,00.0,35.1,27.9,12.6,0000.0,0004.67,0008.26,0004.27
2022-10-17 08:58:00,,0833.5,5.00,0.00,26.1,24.4,00.0,35.1,27.9,12.7,0000.0,0004.61,0007.88,0004.25
2022-10-17 08:59:00,,0833.4,5.01,0.00,26.1,24.4,00.0,35.1,27.8,12.7,0000.0,0004.57,0007.80,0004.25
